SL-12 R/B(AUX MOTOR), 20631

Orbit data source: Space-Track

SL-12 R/B(AUX MOTOR), 20631 is space debris in HEO originally from a launch on Sat, 19 May 1990 UTC launched from the Tyuratam Missile And Space Complex (TTMTR). Debris objects in space refer to the collection of defunct objects orbiting the Earth. Examples of debris include non-operational satellites, rocket bodies, and fragments generated from explosions, collisions, or faulty payload assembly.

Loading next visibility...
Identifier
20631, 1990-045G
Orbit
HEO
Country
Flag of CISCIS
Related business
Manufacturer
NPO Energiya
Mission
Spacecraft
Bus & Motor
SOZ, Unknown motor
Mass
Wet unknown, ~60 kg dry
Launch date (UTC)
1990-05-19 (36 years ago)
Launch vehicle
Unknown
Launch site
Tyuratam Missile And Space Complex (TTMTR)
Object type
Payload
Rocket body
Debris
Shape & HBR
Cyl, 0.6 m
Radar Cross Section
0.660 m², Medium (>0.1 m² and < 1m²)

Expand to show TLE details & history
Last TLE update: 3 days ago

TLE from 3 days ago
0 SL-12 R/B(AUX MOTOR)
1 20631U 90045G   26170.85191003  .00000231  00000-0  76181-3 0  9995
2 20631  64.8550  46.1321 5518228 135.4718 285.1718  4.52122435577165
Epoch: 2026-06-19T20:26Z
TLE epoch observation values (Epoch: 2026-06-19T20:26:45.026Z)
Latitude
-0.00001°
Longitude
-168.62018°
Altitude
11,324.14 km
Speed
4.386 km/s
True Right ascension
03h 04m 34s
True Declination
0° 00' 00"
Sunlit
Object was in daylight at epoch
Visualization orbit readout
Latitude
Unknown
Longitude
Unknown
Altitude
Unknown
Speed
Unknown
Apparent Right ascension
Unknown
Apparent Declination
Unknown
Sunlit
N/A
Visualization observer readout
Local Sidereal Time
00:33:08
Azimuth
Unknown
Elevation
Unknown
Doppler factor
Unknown
Orbital elements
Apogee altitude
17,594.098 km
Perigee altitude
545.211 km
Semi-major axis
15,447.792 km
Eccentricity
0.55182
Inclination
64.855°
RAAN
46.1321°
Arg. of periapsis
135.4718°
True anomaly
224.58494°
Mean anomaly
285.1718°
Eccentric anomaly
254.67842°
Mean motion
1.13043 °/min
Orbital period
318.46 mins
BSTAR
0.00076181
Loading maneuver chart data...
Computing Atmospheric mass density...
Loading historical data...
Loading historical data...
Loading historical data...
Loading historical data...
Loading historical data...
Loading historical data...
Loading historical data...

Documentation

Showing up to 5 results
|